sat.trackr.live / text

‹ back to catalog

STARLINK-36915

NORAD 68061 · 2026-041X

PAYLOAD ACTIVE UNKNOWN

§ Identity

Operator
Country
US
Launch date
2026-03-02
Launch site
AFETR
Launch vehicle
Mass (kg)
RCS (m²)

Purposes: comms

External: N2YO · Heavens-Above · Gunter

§ Orbital elements

Epoch: 2026-05-25T03:39:28.545408Z

Period
93.85 min
Inclination
53.1583°
Eccentricity
0.0000373
Mean motion
15.34400231 rev/d
Perigee alt
462.4 km
Apogee alt
463.0 km
Semi-major
6,840.8 km
B*
1.3453e-3
RAAN
52.6798°
Arg perigee
52.8867°
Mean anomaly
307.2170°
Rev number
1,312

§ Raw data

STARLINK-369151 68061U 26041X   26145.15241372  .00045351  00000+0  13453-2 0  99922 68061  53.1583  52.6798 0000373  52.8867 307.2170 15.34400231 13124

JSON: /api/v1/satellites/68061 · /tle

For live sub-satellite position, see the globe view (requires WebGL).

§ Visibility from observer

Set your observer location to see the next 7 days of passes ≥ 10°. The values pass through the URL so the page stays shareable.

No JS? Fill the form by hand. The geolocation button needs JavaScript.